CZ-6A DEB, 60653

Orbit data source: Space-Track

CZ-6A DEB, 60653 is space debris in LEO originally from a launch on Tue, 06 Aug 2024 UTC launched from the Taiyaun Space Center, China (TSC). Debris objects in space refer to the collection of defunct objects orbiting the Earth. Examples of debris include non-operational satellites, rocket bodies, and fragments generated from explosions, collisions, or faulty payload assembly.

Loading next visibility...
Identifier
60653, 2024-140BE
Orbit
LEO
Country
Flag of CNCN / PRC
Related business
Manufacturer
SAST
Mission
Spacecraft
Bus & Motor
Unknown
Mass
Unknown
Launch date (UTC)
2024-08-06 (2 years ago)
Launch vehicle
Unknown
Launch site
Taiyaun Space Center, China (TSC)
Object type
Payload
Rocket body
Debris
Shape & HBR
Unknown shape, 0.2 m
Radar Cross Section
Medium (>0.1 m² and <1 m²)

Expand to show TLE details & history
Last TLE update: 13 hours ago

TLE from 13 hours ago
0 CZ-6A DEB
1 60653U 24140BE  26171.44865138  .00000335  00000-0  11357-3 0  9998
2 60653  88.6535 243.9938 0026468 245.2096 114.6348 14.34240712 97358
Epoch: 2026-06-20T10:46Z
TLE epoch observation values (Epoch: 2026-06-20T10:46:03.479Z)
Latitude
-0.00002°
Longitude
173.81618°
Altitude
788.6 km
Speed
7.455 km/s
True Right ascension
16h 15m 58s
True Declination
0° 00' 00"
Sunlit
Object was in full shadow at epoch
Visualization orbit readout
Latitude
Unknown
Longitude
Unknown
Altitude
Unknown
Speed
Unknown
Apparent Right ascension
Unknown
Apparent Declination
Unknown
Sunlit
N/A
Visualization observer readout
Local Sidereal Time
10:18:41
Azimuth
Unknown
Elevation
Unknown
Doppler factor
Unknown
Orbital elements
Apogee altitude
793.456 km
Perigee altitude
755.592 km
Semi-major axis
7,152.661 km
Eccentricity
0.00265
Inclination
88.6535°
RAAN
243.9938°
Arg. of periapsis
245.2096°
True anomaly
114.91011°
Mean anomaly
114.6348°
Eccentric anomaly
114.7725°
Mean motion
3.58791 °/min
Orbital period
100.34 mins
BSTAR
0.00011357
Loading maneuver chart data...
Computing Atmospheric mass density...
Loading historical data...
Loading historical data...
Loading historical data...
Loading historical data...
Loading historical data...
Loading historical data...
Loading historical data...

Documentation

Showing up to 5 results
|